Regional Weather Roundup
Issued by NWS

Home | Current Version | Previous Version | Graphics & Text | Print | Product List | Glossary On
Versions: 1 2 3 4 5 6 7 8 9 10 11 12 13 14 15 16 17 18 19 20 21 22 23 24 25 26 27
000
ASUS45 KBOU 221310
RWRCO

WEATHER ROUNDUP FOR COLORADO
NATIONAL WEATHER SERVICE DENVER/BOULDER CO
600 AM MST MON JAN 22 2018

NOTE: "FAIR" INDICATES FEW OR NO CLOUDS BELOW 12000 FEET WITH NO
SIGNIFICANT WEATHER AND/OR OBSTRUCTIONS TO VISIBILITY.

COZ001>005-013-030-031-221400-
...NORTHWEST COLORADO...

CITY           SKY/WX    TMP DP  RH WIND       PRES   REMARKS
CRAIG          FAIR      -7 -12  79 CALM      30.23R
HAYDEN         FAIR     N/A N/A N/A CALM      30.22R
MEEKER         FAIR      -6 -10  83 VRB3      30.22R
RABBIT EARS PA LGT SNOW N/A N/A N/A W12G21    30.00R VSB 1
STEAMBOAT SPGS FAIR       7   5  89 CALM      30.18S
WALDEN         FAIR      -2  -8  78 SE5       30.09R WCI -12
$$

COZ006>008-011-221400-
...WEST CENTRAL VALLEYS...

CITY           SKY/WX    TMP DP  RH WIND       PRES   REMARKS
GRAND JUNCTION FAIR      11   8  88 E10       30.28R WCI  -3
MONTROSE       FAIR      13   7  77 SE9       30.29R WCI   1
EAGLE          FAIR       1  -3  83 CALM      30.26R
RIFLE          FAIR      14   9  80 CALM      30.28R
DELTA          FAIR      16  11  78 CALM      30.30R
NUCLA          FAIR       9   5  85 SE3       30.29R
$$

COZ017>023-064>068-221400-
...SOUTHWEST COLORADO...

CITY           SKY/WX    TMP DP  RH WIND       PRES   REMARKS
DURANGO        FAIR       3   2  95 E7        30.14R WCI  -9
CORTEZ         FAIR       4   0  83 NE10      30.21R WCI -11
PAGOSA SPRINGS FAIR     N/A N/A N/A CALM      30.13R
TELLURIDE      FAIR       5   2  89 SE7       30.14S WCI  -7
WOLF CREEK PAS FAIR       1 -13  51 N10G18    30.02R WCI -14
$$

COZ009-010-012-014-032>034-037-058>063-221400-
...CENTRAL COLORADO...

CITY           SKY/WX    TMP DP  RH WIND       PRES   REMARKS
ASPEN          CLOUDY     9   4  80 S6        30.16R WCI  -1
BUENA VISTA    FAIR      13  -1  53 W20G25    30.05F WCI  -5
COPPER MTN     NOT AVBL
BERTHOUD PASS  SNOW      -6 -17  59 N16G36    29.90R VSB 1/2 WCI -28
COTTONWOOD PAS   N/A     14   0  52 NW14G22   29.98R WCI  -1
GUNNISON       FAIR      -1  -6  79 N7        30.18R WCI -14
KREMMLING      CLOUDY     7   3  85 CALM      30.17R
LEADVILLE      CLOUDY    -2  -6  83 VRB3      30.05R
MONARCH PASS   CLOUDY    -4  -8  84 MISG      30.03R
SALIDA         FAIR       9   0  67 W8        30.15S WCI  -3
SUNLIGHT       SNOW     N/A N/A N/A MISG      30.10R VSB 1/2
WILKERSON PASS   N/A      3  -6  66 N17G33    29.90S WCI -17
$$

COZ069>075-221400-
...SAN LUIS VALLEY/SANGRE DE CRISTO MOUNTAINS...

CITY           SKY/WX    TMP DP  RH WIND       PRES   REMARKS
ALAMOSA        FAIR      -3  -8  79 CALM      30.09R
DEL NORTE      FAIR      15  -4  44 W16G24    30.08R WCI  -1
LA VETA PASS   CLOUDY     3   0  85 SW24G31     N/A  WCI -20
SAGUACHE       FAIR      14   3  62 N14G22    30.10R WCI  -1
$$

COZ035-036-038>040-221400-
...NORTHERN COLORADO FRONT RANGE...

CITY           SKY/WX    TMP DP  RH WIND       PRES   REMARKS
DENVER INTL AP FAIR      13   3  64 S6        29.98R WCI   4
DMNS CITY PARK NOT AVBL
AURORA         PTCLDY    18   6  57 W7        29.98R WCI   9
FRONT RANGE AP FAIR      19   9  64 CALM      29.98S
ERIE MUNI ARPT FAIR       6   3  89 CALM      30.04R
BOULDER MUN AP FAIR      27   9  46 W7        29.97S WCI  19
CENTENNIAL     FAIR      20   7  57 W12       29.97R WCI   8
BROOMFIELD     FAIR      27   3  36 W12       29.98R WCI  16
FORT COLLINS   FAIR      14   8  77 S8        29.98R WCI   3
LONGMONT       FAIR      11   3  71 W3        30.00S
$$

COZ041-046-047-076>085-087-088-221400-
...PIKES PEAK/PALMER DIVIDE AND SOUTHERN FOOTHILLS...

CITY           SKY/WX    TMP DP  RH WIND       PRES   REMARKS
COLO. SPRINGS  FAIR      21   2  43 NW7       29.96R WCI  12
A. F. ACADEMY  CLEAR     21   0  39 N16G25    29.92R WCI   7
SCHRIEVER AFB  FAIR      22   2  41 N10       29.96R WCI  11
CHEYENNE MTN   FAIR      19   1  44 W6        29.87R WCI  11
ELLICOTT         N/A    N/A N/A N/A CALM        N/A
FALCON         FAIR      20   1  41 NW17G25   29.93R WCI   6
FORT CARSON    FAIR      18   4  53 CALM      29.95R
LIMON          FAIR      20  11  68 NW24G35   29.93R WCI   3
MONUMENT HILL  FAIR      10   1  67 NW14      29.95R WCI  -5
CANON CITY     FAIR      23   9  54 W18       30.02R WCI   9
WALSENBURG     FAIR      21   9  58 W22G31    30.00R WCI   5
TRINIDAD       FAIR      17   7  64 W7        30.00R WCI   8
$$

COZ042>045-048>051-090-091-221400-
...NORTHEAST COLORADO...

CITY           SKY/WX    TMP DP  RH WIND       PRES   REMARKS
GREELEY ARPT   FAIR      11   6  81 SW6       30.01R WCI   1
AKRON          MOCLDY    21  13  71 NW22      29.94R WCI   5
BURLINGTON     CLOUDY    24  20  84 N28G38    29.88R WCI   7
WRAY           CLOUDY    27  21  80 NW22G29   29.92S WCI  12
YUMA           PTSUNNY   23  14  68 NW23G32   29.93R WCI   7
STERLING       FAIR      25  16  68 NW23G29   29.95S WCI  10
HOLYOKE        FAIR      30  21  69 NW18G29   29.91S WCI  18
FORT MORGAN    FAIR      23  10  56 NW20      30.00R WCI   8
$$

COZ086-089-092>099-221400-
...SOUTHEAST COLORADO...

CITY           SKY/WX    TMP DP  RH WIND       PRES   REMARKS
PUEBLO         FAIR      28   7  41 NW17      30.00R WCI  16
LA JUNTA       FAIR      21  13  71 W14       30.01R WCI   8
LAMAR          FAIR      25  14  63 W17       29.95S WCI  12
SPRINGFIELD      N/A     25  16  68 NW25G39   29.91R WCI   9
$$




USA.gov is the U.S. government's official web portal to all federal, state and local government web resources and services.